Погода в Сандэнсе

США     44°24′22″N   104°22′28″W
темп.,
°C
ветер,
м/с
пор.,
м/с
влажн.,
%
обл.,
%
осадки,
мм/ч
давл.,
гПа
погр.,
м
8 марта, пн
пн823:00+4ююз36681 0.0 101880
02:00+4ююз46690 0.0 101793
05:00+3ююз336950 0.0 101632
08:00+6ююз226034 0.0 101649
11:00+11в235067 0.0 1013329
14:00+14юв1543100 0.0 1009657
17:00+11ю375581 0.0 1007187
20:00+8ююз5115664 0.0 1006209
9 марта, вт
вт923:00+7ююз7165650 0.0 1005357
02:00+8юз8175532 0.0 1004347
05:00+8ююз8174919 0.0 1007492
08:00+2з588692 0.0 1011380
11:00+4зсз576793 0.0 1013569
14:00+7зсз58492 0.0 10121461
17:00+4ссз545638 0.0 1013825
20:00+1с257168 0.0 1014215
10 марта, ср
ср1023:00−1всв248083 0.0 1014264
02:00−3всв4793100 0.9 1013494
05:00−3всв3495100 2.4 1013310
08:00−3св4695100 1.3 1012422
11:00−3св5695100 3.5 1011493
14:00−2св5796100 2.4 1011535
17:00−3св3596100 3.8 1013397
20:00−5ююв1198100 0.7 101521
11 марта, чт
чт1123:00−5юз2290100 0.7 101625
02:00−6юз2389100 0.0 101732
05:00−6юз339198 0.0 101762
08:00−3зюз2389100 0.0 1018148
11:000з2369100 0.0 1018861
14:00+2зюз4568100 0.0 10171092
17:00+1зюз367250 0.0 1018372
20:00−3ююз47880 0.0 1021132
12 марта, пт
пт1223:00−4юз58840 0.0 1023159
02:00−4юз56840 0.0 1024105
05:00−4ююз44770 0.0 102557
08:00−1ююз33640 0.0 1027104
11:00+4с11410 0.0 1026856
14:00+6ссв32400 0.0 10251227
17:00+3ссв23570 0.0 102661
20:00−1ююз226422 0.0 102922